Weather History for Beverly, MA

Change the Weather History Date:

Wednesday, March 13, 2013

  Actual Average Record
Temperature  
Mean Temperature 44 °F -  
Max Temperature 51 °F 40 °F 72 °F (2012)
Min Temperature 36 °F 24 °F 16 °F (2014)
Degree Days  
Heating Degree Days 21    
Moisture  
Dew Point 32 °F    
Average Humidity 62    
Maximum Humidity 96    
Minimum Humidity 34    
Precipitation  
Precipitation 0.00 in - - ()
Sea Level Pressure  
Sea Level Pressure 29.72 in    
Wind  
Wind Speed 8 mph (WNW)    
Max Wind Speed 14 mph    
Max Gust Speed 21 mph    
Visibility 10 miles    
Events      
Averages and records for this station are not official NWS values.
T = Trace of Precipitation, MM = Missing Value Source: NWS Daily Summary

Daily Weather History Graph

Daily Weather History Graph

Search for Another Location

Airport:

Trip Planner

Search our weather history database for the weather conditions in past years. The results will help you decide how hot, cold, wet, or windy it might be!

Date:

Astronomy

Mar. 13, 2013 Rise Set
Actual Time 6:58 AM EDT 6:48 PM EDT
Civil Twilight 6:30 AM EDT 7:16 PM EDT
Nautical Twilight 5:58 AM EDT 7:48 PM EDT
Astronomical Twilight 5:24 AM EDT 8:22 PM EDT
Moon 7:33 AM EDT (3/13) 9:05 PM EDT (3/13)
Length of Visible Light 12h 45m
Length of Day
11h 49m
Waxing Crescent, 4% of the Moon is Illuminated
Mar 13
Waxing Crescent
Mar 19
First Quarter
Mar 27
Full
Apr 3
Last Quarter
Apr 10
New

Hourly Weather History & Observations

Time (EDT) Temp. Windchill Dew Point Humidity Pressure Visibility Wind Dir Wind Speed Gust Speed Precip Events Conditions
12:53 AM 51.1 °F - 50.0 °F 96% 29.72 in 4.0 mi SSW 4.6 mph - N/A   Overcast
1:46 AM 51.8 °F - 48.2 °F 88% 29.71 in 10.0 mi West 8.1 mph - N/A   Overcast
1:53 AM 50.0 °F - 48.0 °F 93% 29.71 in 10.0 mi West 10.4 mph 20.7 mph N/A   Overcast
2:06 AM 48.2 °F - 46.4 °F 93% 29.72 in 10.0 mi WNW 12.7 mph - N/A   Overcast
2:34 AM 46.4 °F 41.9 °F 42.8 °F 87% 29.73 in 10.0 mi NW 9.2 mph - 0.00 in   Overcast
2:53 AM 46.4 °F 42.4 °F 41.0 °F 81% 29.73 in 10.0 mi WNW 8.1 mph - N/A   Overcast
3:53 AM 43.0 °F 38.8 °F 37.0 °F 80% 29.72 in 10.0 mi NW 6.9 mph - N/A   Overcast
4:53 AM 41.0 °F 35.2 °F 35.1 °F 79% 29.74 in 10.0 mi WNW 9.2 mph - N/A   Mostly Cloudy
5:53 AM 39.0 °F 32.8 °F 32.0 °F 76% 29.73 in 10.0 mi WNW 9.2 mph - N/A   Scattered Clouds
6:53 AM 37.9 °F 32.1 °F 30.9 °F 76% 29.73 in 10.0 mi WNW 8.1 mph - N/A   Clear
7:53 AM 39.0 °F 32.8 °F 30.9 °F 73% 29.74 in 10.0 mi WNW 9.2 mph - N/A   Clear
8:53 AM 41.0 °F 35.2 °F 32.0 °F 70% 29.73 in 10.0 mi NW 9.2 mph - N/A   Clear
9:53 AM 43.0 °F 37.7 °F 33.1 °F 68% 29.72 in 10.0 mi NW 9.2 mph 19.6 mph N/A   Clear
10:53 AM 45.0 °F 40.1 °F 32.0 °F 60% 29.72 in 10.0 mi NW 9.2 mph - N/A   Clear
11:53 AM 48.0 °F - 33.1 °F 56% 29.70 in 10.0 mi WNW 12.7 mph - N/A   Clear
12:53 PM 48.9 °F - 33.1 °F 54% 29.72 in 10.0 mi West 10.4 mph - N/A   Partly Cloudy
1:53 PM 51.1 °F - 33.1 °F 50% 29.69 in 10.0 mi WNW 13.8 mph 18.4 mph N/A   Partly Cloudy
2:53 PM 51.1 °F - 30.0 °F 44% 29.68 in 10.0 mi West 10.4 mph 20.7 mph N/A   Clear
3:53 PM 51.1 °F - 28.0 °F 41% 29.68 in 10.0 mi WNW 9.2 mph - N/A   Clear
4:53 PM 50.0 °F - 25.0 °F 38% 29.68 in 10.0 mi WNW 10.4 mph - N/A   Clear
5:53 PM 48.0 °F - 21.0 °F 34% 29.68 in 10.0 mi West 13.8 mph 20.7 mph N/A   Clear
6:53 PM 45.0 °F 40.6 °F 19.0 °F 36% 29.71 in 10.0 mi WNW 8.1 mph - N/A   Clear
7:53 PM 43.0 °F 37.7 °F 18.0 °F 37% 29.73 in 10.0 mi West 9.2 mph - N/A   Clear
8:53 PM 41.0 °F 38.0 °F 19.0 °F 41% 29.75 in 10.0 mi West 4.6 mph - N/A   Clear
9:53 PM 39.0 °F 36.8 °F 18.0 °F 43% 29.76 in 10.0 mi West 3.5 mph - N/A   Clear
10:53 PM 37.0 °F 32.4 °F 18.0 °F 46% 29.75 in 10.0 mi West 5.8 mph - N/A   Clear
11:53 PM 36.0 °F 33.3 °F 17.1 °F 46% 29.74 in 10.0 mi WNW 3.5 mph - N/A   Clear